SCO15CD EGPH-EGAA

Flight info

Callsign SCO15CD
Flight time 0h 31m
Altitude 20000
Route GOSAM P600 BLACA DCT BELZU
Aircraft A320/M-SDE3FGHIRWY/LB1

Departure

Time 2026-05-06 17:25
Airport Edinburgh Airport (EGPH)

Arrival

Time 2026-05-06 17:56
Airport Belfast International Airport (EGAA)
Time Latitude Longitude Altitude Speed Heading
2026-05-06 17:02 55.94921 -3.36430 116 ft 0 kts 148°
2026-05-06 17:16 55.94929 -3.36439 112 ft 4 kts 149°
2026-05-06 17:17 55.94951 -3.36464 112 ft 4 kts 152°
2026-05-06 17:17 55.94975 -3.36476 112 ft 4 kts 194°
2026-05-06 17:17 55.94995 -3.36453 112 ft 3 kts 238°
2026-05-06 17:17 55.94996 -3.36448 112 ft 0 kts 238°
2026-05-06 17:19 55.94976 -3.36508 114 ft 10 kts 236°
2026-05-06 17:20 55.94942 -3.36606 114 ft 9 kts 238°
2026-05-06 17:20 55.94913 -3.36696 116 ft 8 kts 240°
2026-05-06 17:20 55.94895 -3.36780 114 ft 7 kts 276°
2026-05-06 17:20 55.94927 -3.36861 114 ft 8 kts 285°
2026-05-06 17:21 55.94899 -3.36975 115 ft 12 kts 239°
2026-05-06 17:21 55.94845 -3.37133 113 ft 17 kts 239°
2026-05-06 17:21 55.94772 -3.37349 115 ft 23 kts 239°
2026-05-06 17:21 55.94690 -3.37593 116 ft 22 kts 239°
2026-05-06 17:22 55.94613 -3.37821 116 ft 21 kts 239°
2026-05-06 17:22 55.94541 -3.38032 113 ft 19 kts 239°
2026-05-06 17:22 55.94475 -3.38226 113 ft 18 kts 239°
2026-05-06 17:22 55.94414 -3.38407 114 ft 16 kts 239°
2026-05-06 17:23 55.94357 -3.38573 113 ft 15 kts 239°
2026-05-06 17:23 55.94306 -3.38726 115 ft 14 kts 239°
2026-05-06 17:23 55.94289 -3.38865 116 ft 11 kts 306°
2026-05-06 17:23 55.94325 -3.38907 116 ft 0 kts 328°
2026-05-06 17:24 55.94336 -3.38918 114 ft 8 kts 328°
2026-05-06 17:24 55.94396 -3.38977 114 ft 11 kts 351°
2026-05-06 17:24 55.94455 -3.38857 112 ft 24 kts 61°
2026-05-06 17:25 55.94680 -3.38195 113 ft 97 kts 59°
2026-05-06 17:25 55.95136 -3.36849 119 ft 153 kts 58°
2026-05-06 17:25 55.95722 -3.35137 562 ft 168 kts 57°
2026-05-06 17:25 55.96556 -3.33594 1213 ft 180 kts 41°
2026-05-06 17:26 55.97535 -3.32070 1824 ft 193 kts 46°
2026-05-06 17:26 55.98484 -3.30332 2525 ft 197 kts 47°
2026-05-06 17:26 55.99573 -3.28760 3136 ft 209 kts 30°
2026-05-06 17:26 56.01034 -3.28126 3557 ft 233 kts 354°
2026-05-06 17:27 56.02560 -3.29333 3999 ft 255 kts 314°
2026-05-06 17:27 56.03403 -3.32124 4716 ft 262 kts 276°
2026-05-06 17:27 56.03330 -3.35372 5665 ft 263 kts 258°
2026-05-06 17:27 56.02898 -3.38543 6698 ft 263 kts 253°
2026-05-06 17:28 56.02354 -3.41687 7658 ft 266 kts 251°
2026-05-06 17:28 56.01791 -3.44858 8588 ft 270 kts 252°
2026-05-06 17:28 56.01245 -3.48091 9530 ft 273 kts 253°
2026-05-06 17:28 56.00714 -3.51436 10300 ft 283 kts 254°
2026-05-06 17:29 56.00187 -3.54918 10633 ft 305 kts 255°
2026-05-06 17:29 55.99642 -3.58653 11297 ft 314 kts 255°
2026-05-06 17:29 55.99097 -3.62452 12114 ft 318 kts 255°
2026-05-06 17:29 55.98552 -3.66285 12972 ft 320 kts 256°
2026-05-06 17:30 55.98001 -3.70163 13813 ft 323 kts 256°
2026-05-06 17:30 55.97445 -3.74060 14555 ft 326 kts 256°
2026-05-06 17:30 55.96881 -3.77994 15282 ft 328 kts 256°
2026-05-06 17:30 55.96309 -3.81949 16009 ft 331 kts 256°
2026-05-06 17:31 55.95728 -3.85943 16722 ft 334 kts 256°
2026-05-06 17:31 55.95143 -3.89963 17442 ft 336 kts 256°
2026-05-06 17:31 55.94551 -3.94015 18152 ft 339 kts 256°
2026-05-06 17:31 55.93876 -3.98071 18769 ft 343 kts 249°
2026-05-06 17:32 55.92725 -4.01827 19342 ft 349 kts 236°
2026-05-06 17:32 55.91074 -4.05048 19848 ft 357 kts 223°
2026-05-06 17:32 55.89057 -4.07653 19969 ft 358 kts 218°
2026-05-06 17:32 55.87051 -4.10087 20005 ft 343 kts 218°
2026-05-06 17:33 55.85094 -4.12459 20004 ft 338 kts 218°
2026-05-06 17:33 55.83157 -4.14818 20004 ft 337 kts 218°
2026-05-06 17:33 55.81225 -4.17173 20004 ft 336 kts 218°
2026-05-06 17:33 55.79295 -4.19521 20004 ft 336 kts 218°
2026-05-06 17:34 55.77373 -4.21874 20006 ft 336 kts 218°
2026-05-06 17:34 55.75455 -4.24249 20005 ft 336 kts 219°
2026-05-06 17:34 55.73542 -4.26629 20004 ft 336 kts 219°
2026-05-06 17:34 55.71630 -4.29014 20006 ft 336 kts 219°
2026-05-06 17:35 55.69721 -4.31398 19991 ft 336 kts 219°
2026-05-06 17:35 55.67811 -4.33774 19992 ft 336 kts 219°
2026-05-06 17:35 55.65895 -4.36147 19994 ft 336 kts 218°
2026-05-06 17:36 55.62058 -4.40880 19997 ft 336 kts 218°
2026-05-06 17:36 55.60135 -4.43250 19999 ft 336 kts 218°
2026-05-06 17:36 55.58215 -4.45614 20001 ft 336 kts 218°
2026-05-06 17:36 55.56296 -4.47976 20000 ft 336 kts 218°
2026-05-06 17:37 55.54373 -4.50336 20019 ft 337 kts 218°
2026-05-06 17:37 55.52449 -4.52690 20019 ft 337 kts 218°
2026-05-06 17:37 55.50520 -4.55043 20022 ft 337 kts 218°
2026-05-06 17:37 55.48598 -4.57392 20023 ft 337 kts 218°
2026-05-06 17:38 55.46673 -4.59744 20024 ft 337 kts 218°
2026-05-06 17:38 55.44749 -4.62092 20023 ft 337 kts 218°
2026-05-06 17:38 55.42823 -4.64441 20013 ft 337 kts 218°
2026-05-06 17:38 55.40895 -4.66790 20013 ft 337 kts 218°
2026-05-06 17:39 55.38968 -4.69134 19996 ft 337 kts 218°
2026-05-06 17:39 55.37039 -4.71474 20001 ft 337 kts 218°
2026-05-06 17:39 55.35112 -4.73814 20000 ft 337 kts 218°
2026-05-06 17:39 55.33181 -4.76156 20003 ft 337 kts 218°
2026-05-06 17:40 55.31250 -4.78421 19971 ft 330 kts 214°
2026-05-06 17:40 55.29914 -4.79661 19809 ft 326 kts 211°
2026-05-06 17:40 55.27896 -4.81434 19473 ft 323 kts 210°
2026-05-06 17:40 55.25896 -4.83183 19114 ft 320 kts 210°
2026-05-06 17:41 55.23908 -4.84922 18737 ft 318 kts 210°
2026-05-06 17:41 55.21937 -4.86645 18383 ft 316 kts 210°
2026-05-06 17:41 55.19979 -4.88357 17996 ft 314 kts 210°
2026-05-06 17:41 55.18033 -4.90061 17596 ft 312 kts 210°
2026-05-06 17:42 55.16100 -4.91750 17188 ft 310 kts 210°
2026-05-06 17:42 55.14177 -4.93434 16778 ft 308 kts 210°
2026-05-06 17:42 55.12263 -4.95111 16394 ft 307 kts 210°
2026-05-06 17:42 55.10363 -4.96774 16014 ft 305 kts 210°
2026-05-06 17:43 55.08470 -4.98428 15656 ft 303 kts 210°
2026-05-06 17:43 55.06587 -5.00075 15304 ft 302 kts 210°
2026-05-06 17:43 55.04715 -5.01708 14965 ft 300 kts 210°
2026-05-06 17:43 55.02850 -5.03327 14630 ft 298 kts 210°
2026-05-06 17:44 55.00993 -5.04935 14284 ft 297 kts 209°
2026-05-06 17:44 54.99148 -5.06530 13947 ft 295 kts 209°
2026-05-06 17:44 54.97314 -5.08113 13589 ft 294 kts 209°
2026-05-06 17:44 54.95487 -5.09693 13204 ft 292 kts 209°
2026-05-06 17:45 54.93671 -5.11266 12837 ft 291 kts 209°
2026-05-06 17:45 54.91866 -5.12828 12463 ft 289 kts 209°
2026-05-06 17:45 54.90105 -5.14478 12103 ft 286 kts 217°
2026-05-06 17:45 54.88649 -5.16776 11721 ft 282 kts 232°
2026-05-06 17:46 54.87631 -5.19642 11342 ft 278 kts 248°
2026-05-06 17:46 54.86999 -5.22808 10956 ft 277 kts 252°
2026-05-06 17:46 54.86400 -5.25968 10659 ft 273 kts 252°
2026-05-06 17:46 54.85807 -5.29063 10397 ft 268 kts 252°
2026-05-06 17:47 54.85216 -5.32120 10058 ft 266 kts 252°
2026-05-06 17:47 54.84627 -5.35156 9682 ft 265 kts 251°
2026-05-06 17:47 54.84035 -5.38191 9200 ft 266 kts 251°
2026-05-06 17:47 54.83440 -5.41244 8725 ft 268 kts 251°
2026-05-06 17:48 54.82842 -5.44315 8253 ft 269 kts 251°
2026-05-06 17:48 54.82246 -5.47384 7818 ft 268 kts 251°
2026-05-06 17:48 54.81659 -5.50406 7518 ft 261 kts 251°
2026-05-06 17:48 54.81085 -5.53359 7241 ft 255 kts 251°
2026-05-06 17:49 54.80519 -5.56253 6939 ft 252 kts 251°
2026-05-06 17:49 54.79960 -5.59115 6646 ft 249 kts 251°
2026-05-06 17:49 54.79482 -5.61994 6330 ft 249 kts 253°
2026-05-06 17:49 54.79037 -5.64895 5880 ft 249 kts 253°
2026-05-06 17:50 54.78602 -5.67803 5435 ft 249 kts 254°
2026-05-06 17:50 54.78167 -5.70705 4995 ft 249 kts 253°
2026-05-06 17:50 54.77733 -5.73609 4559 ft 248 kts 254°
2026-05-06 17:50 54.77310 -5.76464 4296 ft 241 kts 254°
2026-05-06 17:51 54.76903 -5.79243 4067 ft 234 kts 250°
2026-05-06 17:51 54.76334 -5.81851 4004 ft 230 kts 244°
2026-05-06 17:51 54.75678 -5.84370 4010 ft 231 kts 243°
2026-05-06 17:51 54.75009 -5.86881 4008 ft 228 kts 243°
2026-05-06 17:52 54.74346 -5.89379 3992 ft 229 kts 243°
2026-05-06 17:52 54.73681 -5.91885 3804 ft 226 kts 243°
2026-05-06 17:52 54.73035 -5.94319 3533 ft 220 kts 243°
2026-05-06 17:52 54.72399 -5.96712 3241 ft 218 kts 243°
2026-05-06 17:53 54.71774 -5.99061 2942 ft 210 kts 242°
2026-05-06 17:53 54.71183 -6.01285 2680 ft 196 kts 242°
2026-05-06 17:53 54.70634 -6.03347 2420 ft 182 kts 240°
2026-05-06 17:53 54.70128 -6.05245 2160 ft 166 kts 240°
2026-05-06 17:54 54.69664 -6.06983 1936 ft 152 kts 239°
2026-05-06 17:54 54.69240 -6.08572 1759 ft 142 kts 239°
2026-05-06 17:54 54.68832 -6.10089 1533 ft 137 kts 238°
2026-05-06 17:54 54.68427 -6.11562 1320 ft 135 kts 239°
2026-05-06 17:55 54.68029 -6.13044 1129 ft 136 kts 241°
2026-05-06 17:55 54.67633 -6.14531 958 ft 137 kts 239°
2026-05-06 17:55 54.67260 -6.16049 770 ft 137 kts 240°
2026-05-06 17:55 54.66842 -6.17516 582 ft 136 kts 239°
2026-05-06 17:56 54.66444 -6.19001 381 ft 136 kts 240°
2026-05-06 17:56 54.66047 -6.20465 274 ft 127 kts 244°
2026-05-06 17:56 54.65748 -6.21583 272 ft 78 kts 245°
2026-05-06 17:56 54.65578 -6.22211 276 ft 40 kts 245°
2026-05-06 17:57 54.65483 -6.22573 272 ft 20 kts 249°
2026-05-06 17:57 54.65553 -6.22727 272 ft 18 kts 342°
2026-05-06 17:57 54.65668 -6.22792 272 ft 17 kts 343°
2026-05-06 17:57 54.65742 -6.22700 272 ft 15 kts 82°
2026-05-06 17:58 54.65752 -6.22505 272 ft 17 kts 84°
2026-05-06 17:58 54.65768 -6.22285 274 ft 20 kts 83°
2026-05-06 17:58 54.65806 -6.22049 272 ft 20 kts 65°
2026-05-06 17:58 54.65869 -6.21816 275 ft 23 kts 65°
2026-05-06 17:59 54.65934 -6.21573 274 ft 22 kts 65°
2026-05-06 17:59 54.65994 -6.21352 272 ft 19 kts 65°
2026-05-06 17:59 54.66049 -6.21149 272 ft 18 kts 65°
2026-05-06 17:59 54.66100 -6.20958 275 ft 16 kts 65°
2026-05-06 18:00 54.66135 -6.20874 272 ft 3 kts 59°
2026-05-06 18:00 54.66119 -6.20891 275 ft 6 kts 238°
2026-05-06 18:00 54.66090 -6.20996 275 ft 12 kts 244°
2026-05-06 18:00 54.66056 -6.21119 272 ft 11 kts 245°
2026-05-06 18:01 54.66070 -6.21216 272 ft 9 kts 328°
2026-05-06 18:01 54.66122 -6.21259 274 ft 8 kts 335°
2026-05-06 18:01 54.66168 -6.21278 272 ft 6 kts 15°
2026-05-06 18:01 54.66187 -6.21226 276 ft 5 kts 65°
2026-05-06 18:02 54.66193 -6.21204 272 ft 0 kts 64°